Weather History for KLBT - August, 2013

Change the Weather History Date:

Saturday, August 17, 2013

  Actual Average Record
Temperature  
Mean Temperature 72 °F 79 °F  
Max Temperature 77 °F 88 °F 96 °F (2007)
Min Temperature 66 °F 70 °F 62 °F (2004)
Degree Days  
Heating Degree Days 0 0  
Month to date heating degree days 0 0  
Since 1 June heating degree days 0 0  
Since 1 July heating degree days 0 0  
Cooling Degree Days 7 14  
Month to date cooling degree days 245 252  
Year to date cooling degree days 1332 1390  
Since 1 June cooling degree days 1140 1140  
Growing Degree Days 22 (Base 50)    
Moisture  
Dew Point 69 °F    
Average Humidity 91    
Maximum Humidity 100    
Minimum Humidity 82    
Precipitation  
Precipitation 0.15 in 0.18 in 0.40 in (2008)
Month to date precipitation 1.09 3.11  
Year to date precipitation 31.91 28.00  
Sea Level Pressure  
Sea Level Pressure 30.11 in    
Wind  
Wind Speed 5 mph (NE)    
Max Wind Speed 10 mph    
Max Gust Speed 15 mph    
Visibility 6 miles    
Events Rain    
T = Trace of Precipitation, MM = Missing Value Source: NWS Daily Summary

Daily Weather History Graph

Daily Weather History Graph

Search for Another Location

Airport or City:

Trip Planner

Search our weather history database for the weather conditions in past years. The results will help you decide how hot, cold, wet, or windy it might be!

Date:

Astronomy

Aug. 17, 2013 Rise Set
Actual Time 6:38 AM EDT 8:01 PM EDT
Civil Twilight 6:11 AM EDT 8:27 PM EDT
Nautical Twilight 5:40 AM EDT 8:59 PM EDT
Astronomical Twilight 5:07 AM EDT 9:32 PM EDT
Moon 5:11 PM EDT (8/17) 2:44 AM EDT (8/17)
Length of Visible Light 14h 15m
Length of Day
13h 22m
Waxing Gibbous, 84% of the Moon is Illuminated
Aug 17
Waxing Gibbous
Aug 20
Full
Aug 28
Last Quarter
Sep 5
New
Sep 12
First Quarter

Hourly Weather History & Observations

Time (EDT) Temp. Dew Point Humidity Pressure Visibility Wind Dir Wind Speed Gust Speed Precip Events Conditions
12:12 AM 66.2 °F 64.4 °F 94% 30.13 in 10.0 mi NE 8.1 mph - N/A   Overcast
12:54 AM 66.9 °F 64.0 °F 90% 30.12 in 10.0 mi NNE 8.1 mph - N/A   Overcast
1:54 AM 66.9 °F 64.0 °F 90% 30.11 in 10.0 mi NE 5.8 mph - N/A   Overcast
2:54 AM 66.9 °F 64.0 °F 90% 30.10 in 9.0 mi NE 6.9 mph - N/A   Overcast
3:37 AM 66.2 °F 64.4 °F 94% 30.09 in 10.0 mi NE 5.8 mph - 0.05 in   Overcast
3:54 AM 66.9 °F 64.0 °F 90% 30.09 in 10.0 mi NE 8.1 mph - 0.05 in   Overcast
4:54 AM 66.0 °F 64.0 °F 93% 30.09 in 9.0 mi NE 8.1 mph - 0.00 in Rain Light Rain
5:54 AM 66.0 °F 64.0 °F 93% 30.09 in 10.0 mi NE 6.9 mph - 0.01 in   Overcast
6:04 AM 66.2 °F 64.4 °F 94% 30.09 in 10.0 mi NE 9.2 mph - N/A   Overcast
6:31 AM 66.2 °F 64.4 °F 94% 30.09 in 10.0 mi ENE 6.9 mph - N/A   Overcast
6:54 AM 66.0 °F 64.0 °F 93% 30.09 in 4.0 mi NE 8.1 mph - N/A   Overcast
7:15 AM 66.2 °F 64.4 °F 94% 30.10 in 2.5 mi NE 8.1 mph - N/A   Overcast
7:18 AM 66.2 °F 64.4 °F 94% 30.10 in 1.5 mi NE 6.9 mph - N/A   Overcast
7:45 AM 66.2 °F 64.4 °F 94% 30.10 in 2.0 mi NE 8.1 mph - N/A   Overcast
7:54 AM 66.0 °F 64.9 °F 96% 30.10 in 5.0 mi NE 8.1 mph - N/A   Overcast
8:05 AM 66.2 °F 64.4 °F 94% 30.10 in 6.0 mi NE 9.2 mph - N/A   Overcast
8:54 AM 66.9 °F 66.0 °F 97% 30.10 in 7.0 mi NE 9.2 mph - N/A   Overcast
9:04 AM 68.0 °F 66.2 °F 94% 30.10 in 1.8 mi NE 10.4 mph - 0.00 in Rain Light Rain
9:12 AM 68.0 °F 66.2 °F 94% 30.11 in 1.2 mi NE 9.2 mph - 0.01 in Rain Light Rain
9:28 AM 68.0 °F 66.2 °F 94% 30.11 in 2.0 mi ENE 5.8 mph - 0.01 in   Overcast
9:38 AM 68.0 °F 66.2 °F 94% 30.11 in 1.8 mi NE 5.8 mph - 0.01 in   Overcast
9:47 AM 68.0 °F 66.2 °F 94% 30.12 in 2.5 mi NE 4.6 mph - 0.01 in   Overcast
9:54 AM 68.0 °F 66.9 °F 96% 30.12 in 2.0 mi NNE 6.9 mph - 0.01 in   Overcast
10:02 AM 69.8 °F 66.2 °F 88% 30.12 in 1.5 mi NNE 4.6 mph - 0.01 in   Overcast
10:09 AM 69.8 °F 66.2 °F 88% 30.12 in 2.0 mi NE 4.6 mph - 0.01 in   Overcast
10:28 AM 69.8 °F 66.2 °F 88% 30.12 in 1.5 mi NE 4.6 mph - 0.01 in   Overcast
10:38 AM 69.8 °F 68.0 °F 94% 30.13 in 0.8 mi NE 5.8 mph - 0.02 in Rain Light Rain
10:47 AM 69.8 °F 68.0 °F 94% 30.13 in 1.2 mi NE 6.9 mph - 0.02 in Rain Light Rain
10:52 AM 69.8 °F 68.0 °F 94% 30.13 in 2.0 mi ENE 5.8 mph - 0.02 in Rain Light Rain
10:54 AM 69.1 °F 68.0 °F 96% 30.13 in 2.0 mi NE 5.8 mph - 0.02 in   Overcast
11:08 AM 69.8 °F 68.0 °F 94% 30.12 in 1.5 mi ENE 4.6 mph - 0.01 in Rain Light Rain
11:48 AM 71.6 °F 69.8 °F 94% 30.13 in 2.0 mi NE 5.8 mph - 0.02 in Rain Light Rain
11:54 AM 71.1 °F 69.1 °F 93% 30.13 in 2.5 mi NE 5.8 mph - 0.02 in   Overcast
12:05 PM 71.6 °F 69.8 °F 94% 30.13 in 1.8 mi NE 5.8 mph - 0.00 in Rain Light Rain
12:13 PM 71.6 °F 69.8 °F 94% 30.12 in 1.5 mi NE 5.8 mph - 0.00 in Rain Light Rain
12:29 PM 71.6 °F 69.8 °F 94% 30.12 in 2.0 mi ENE 4.6 mph - 0.01 in Rain Light Rain
12:49 PM 71.6 °F 69.8 °F 94% 30.12 in 1.5 mi NE 4.6 mph - 0.02 in Rain Light Rain
12:54 PM 72.0 °F 70.0 °F 93% 30.12 in 1.5 mi NE 3.5 mph - 0.02 in Rain Light Rain
1:01 PM 71.6 °F 69.8 °F 94% 30.12 in 2.0 mi NE 4.6 mph - 0.00 in Rain Light Rain
1:16 PM 71.6 °F 69.8 °F 94% 30.12 in 3.0 mi ENE 3.5 mph - 0.00 in   Overcast
1:38 PM 73.4 °F 71.6 °F 94% 30.11 in 6.0 mi NE 8.1 mph - 0.01 in   Overcast
1:54 PM 73.0 °F 71.1 °F 93% 30.11 in 3.0 mi NE 3.5 mph - 0.01 in   Overcast
2:14 PM 73.4 °F 71.6 °F 94% 30.10 in 6.0 mi NNE 5.8 mph - N/A   Overcast
2:37 PM 73.4 °F 71.6 °F 94% 30.10 in 1.8 mi ENE 4.6 mph - 0.00 in Rain Light Rain
2:43 PM 73.4 °F 71.6 °F 94% 30.09 in 3.0 mi NE 3.5 mph - 0.00 in Rain Light Rain
2:54 PM 73.0 °F 71.1 °F 93% 30.09 in 4.0 mi NNE 3.5 mph - 0.01 in Rain Light Rain
3:32 PM 73.4 °F 71.6 °F 94% 30.09 in 10.0 mi NNE 4.6 mph - N/A   Overcast
3:39 PM 73.4 °F 71.6 °F 94% 30.09 in 10.0 mi North 4.6 mph - N/A   Overcast
3:54 PM 73.9 °F 72.0 °F 93% 30.09 in 10.0 mi North 3.5 mph - N/A   Overcast
4:54 PM 73.9 °F 72.0 °F 93% 30.09 in 4.0 mi Calm Calm - N/A   Overcast
5:06 PM 75.2 °F 71.6 °F 89% 30.08 in 5.0 mi Calm Calm - N/A   Overcast
5:16 PM 75.2 °F 71.6 °F 89% 30.08 in 10.0 mi North 3.5 mph - N/A   Overcast
5:41 PM 75.2 °F 71.6 °F 89% 30.09 in 10.0 mi Calm Calm - N/A   Overcast
5:52 PM 75.2 °F 71.6 °F 89% 30.09 in 10.0 mi Calm Calm - N/A   Overcast
5:54 PM 77.0 °F 72.0 °F 84% 30.08 in 10.0 mi Calm Calm - N/A   Overcast
6:18 PM 75.2 °F 71.6 °F 89% 30.09 in 10.0 mi Calm Calm - N/A   Mostly Cloudy
6:28 PM 75.2 °F 71.6 °F 89% 30.08 in 10.0 mi NNW 3.5 mph - N/A   Mostly Cloudy
6:54 PM 75.9 °F 72.0 °F 87% 30.09 in 10.0 mi NNW 3.5 mph - N/A   Overcast
7:49 PM 75.2 °F 73.4 °F 94% 30.11 in 10.0 mi WSW 4.6 mph - N/A   Overcast
7:54 PM 75.0 °F 72.0 °F 90% 30.11 in 10.0 mi West 3.5 mph - N/A   Overcast
8:54 PM 73.9 °F 72.0 °F 93% 30.11 in 10.0 mi Calm Calm - N/A   Mostly Cloudy
9:54 PM 73.0 °F 72.0 °F 96% 30.14 in 10.0 mi Calm Calm - N/A   Overcast
10:25 PM 73.4 °F 71.6 °F 94% 30.14 in 10.0 mi Calm Calm - N/A   Mostly Cloudy
10:54 PM 73.0 °F 72.0 °F 96% 30.14 in 10.0 mi SW 4.6 mph - N/A   Mostly Cloudy
11:12 PM 73.4 °F 71.6 °F 94% 30.13 in 10.0 mi Calm Calm - N/A   Mostly Cloudy
11:17 PM 73.4 °F 71.6 °F 94% 30.14 in 10.0 mi WSW 6.9 mph - N/A   Overcast
11:28 PM 73.4 °F 71.6 °F 94% 30.14 in 9.0 mi WSW 4.6 mph - N/A   Overcast
11:54 PM 73.0 °F 71.1 °F 93% 30.14 in 9.0 mi Calm Calm - N/A   Overcast